sat.trackr.live / text

‹ back to catalog

STARLINK-3208

NORAD 49769 · 2021-115AX

PAYLOAD ACTIVE UNKNOWN

§ Identity

Operator
Country
US
Launch date
2021-12-02
Launch site
AFETR
Launch vehicle
Mass (kg)
RCS (m²)

Purposes: comms

External: N2YO · Heavens-Above · Gunter

§ Orbital elements

Epoch: 2026-05-24T10:34:55.891488Z

Period
95.44 min
Inclination
53.2162°
Eccentricity
0.0001090
Mean motion
15.08845883 rev/d
Perigee alt
539.0 km
Apogee alt
540.5 km
Semi-major
6,917.9 km
B*
8.6711e-5
RAAN
159.1071°
Arg perigee
79.6382°
Mean anomaly
280.4734°
Rev number
24,711

§ Raw data

STARLINK-32081 49769U 21115AX  26144.44092467  .00001093  00000+0  86711-4 0  99972 49769  53.2162 159.1071 0001090  79.6382 280.4734 15.08845883247118

JSON: /api/v1/satellites/49769 · /tle

For live sub-satellite position, see the globe view (requires WebGL).

§ Visibility from observer

Set your observer location to see the next 7 days of passes ≥ 10°. The values pass through the URL so the page stays shareable.

No JS? Fill the form by hand. The geolocation button needs JavaScript.